Location: Barrio de Canyet
(41.4665°N, 2.2381°E)
Time: 08:50:29
(UTC+00:00)

Cosmos 1908 - Pass Details

Date: 09 April 2020
Orbit: 511 x 531 km, 82.5° (Epoch: 03 June)

Event Time Altitude Azimuth Distance (km) Brightness Sun altitude
Rises 19:03:58 0° 175° (S) 2,630 6.6 -7.8°
Reaches altitude 10° 19:06:07 10° 171° (S) 1,751 5.6 -8.2°
Maximum altitude 19:09:51 53° 94° (E) 653 3.3 -8.9°
Drops below altitude 10° 19:13:39 10° 18° (NNE) 1,778 6.0 -9.5°
Sets 19:15:51 0° 13° (NNE) 2,675 6.9 -9.9°
